IDEFIX & ARIANE 42P R/B

Last updated on Wed Sep 17 2025 00:02:15 GMT+0000 (Coordinated Universal Time)

1 27422U 02021B 25259.59529376 .00000242 00000+0 10870-3 0 9997 2 27422 98.5642 195.4868 0011681 346.3302 13.7563 14.30849855219129
UTC large
Height (km)
Speed (km/s)
/
Latitude / Longitude
Inclination (degrees)
Orbital Period (minutes)
Azimuth
Elevation
Range (km)
Doppler Factor

Next 0 passes for location: London (51.5072 / 0.1276)

Sorry there are no passes over London.